When you browse on this site, cookies collect data to enhance your experience and personalize the content and advertising you see.
Visit our Privacy Policy to learn more. By continuing to use the site, you agree to this use of cookies and data.
  • Em Portugal
  • Lista de países
  • Para 7 dias
  • Temperatura da água
  • Mapa do tempo
  • Widgets de tempo
  • user-avatar
    Iniciar Sessão

    Previsão horária em Ososovo

    Hoje, 26 Agosto, Segunda-feira

    Tempo Temperatura Precipitação Vento Pressão Humidade
    00:00 +12°C° 0 mm 1 m/s 747 mmHg 88%
    01:00 +11°C° 0 mm 1 m/s 748 mmHg 90%
    02:00 +11°C° 0 mm 1 m/s 748 mmHg 90%
    03:00 +11°C° 0 mm 1 m/s 748 mmHg 91%
    04:00 +11°C° 0 mm 1 m/s 747 mmHg 92%
    05:00 +10°C° 0 mm 1 m/s 747 mmHg 94%
    06:00 +12°C° 0 mm 1 m/s 747 mmHg 87%
    07:00 +14°C° 0 mm 2 m/s 747 mmHg 80%
    08:00 +16°C° 0 mm 2 m/s 747 mmHg 73%
    09:00 +18°C° 0 mm 2 m/s 747 mmHg 68%
    10:00 +19°C° 0 mm 2 m/s 747 mmHg 63%
    11:00 +21°C° 0 mm 2 m/s 746 mmHg 57%
    12:00 +22°C° 0 mm 3 m/s 746 mmHg 57%
    13:00 +22°C° 0 mm 3 m/s 746 mmHg 57%
    14:00 +24°C° 0 mm 3 m/s 746 mmHg 56%
    15:00 +22°C° 0 mm 3 m/s 745 mmHg 62%
    16:00 +21°C° 0 mm 2 m/s 745 mmHg 67%
    17:00 +21°C° 0 mm 2 m/s 744 mmHg 72%
    18:00 +19°C° 0 mm 2 m/s 744 mmHg 77%
    19:00 +18°C° 0 mm 2 m/s 744 mmHg 81%
    20:00 +17°C° 0 mm 2 m/s 744 mmHg 85%
    21:00 +16°C° 0 mm 2 m/s 743 mmHg 88%
    22:00 +16°C° 0 mm 2 m/s 743 mmHg 90%
    23:00 +16°C° 0 mm 2 m/s 743 mmHg 93%

    Amanhã, 27 Agosto, Terça-feira

    Tempo Temperatura Precipitação Vento Pressão Humidade
    00:00 +16°C° 0 mm 2 m/s 743 mmHg 94%
    01:00 +15°C° 0 mm 2 m/s 743 mmHg 96%
    02:00 +15°C° 0 mm 2 m/s 743 mmHg 97%
    03:00 +14°C° 0 mm 2 m/s 743 mmHg 98%
    04:00 +14°C° 0 mm 2 m/s 743 mmHg 98%
    05:00 +14°C° 0 mm 2 m/s 743 mmHg 98%
    06:00 +15°C° 0 mm 2 m/s 743 mmHg 94%
    07:00 +16°C° 0 mm 2 m/s 744 mmHg 90%
    08:00 +17°C° 0 mm 2 m/s 744 mmHg 85%
    09:00 +18°C° 0 mm 3 m/s 744 mmHg 77%
    10:00 +19°C° 0 mm 3 m/s 744 mmHg 69%
    11:00 +21°C° 0 mm 4 m/s 744 mmHg 61%
    12:00 +21°C° 0 mm 4 m/s 744 mmHg 58%
    13:00 +21°C° 0 mm 4 m/s 745 mmHg 55%
    14:00 +21°C° 0 mm 3 m/s 745 mmHg 51%
    15:00 +21°C° 0 mm 3 m/s 745 mmHg 55%
    16:00 +20°C° 0 mm 3 m/s 745 mmHg 59%
    17:00 +19°C° 0 mm 3 m/s 744 mmHg 63%
    18:00 +18°C° 0 mm 2 m/s 745 mmHg 70%
    19:00 +16°C° 0 mm 2 m/s 745 mmHg 78%
    20:00 +14°C° 0 mm 2 m/s 745 mmHg 85%
    21:00 +13°C° 0 mm 2 m/s 745 mmHg 88%
    22:00 +13°C° 0 mm 1 m/s 746 mmHg 90%
    23:00 +12°C° 0 mm 1 m/s 746 mmHg 93%

    Depois de amanhã, 28 Agosto, Quarta-feira

    Tempo Temperatura Precipitação Vento Pressão Humidade
    00:00 +12°C° 0 mm 1 m/s 746 mmHg 94%
    01:00 +11°C° 0 mm 1 m/s 747 mmHg 94%
    02:00 +11°C° 0 mm 1 m/s 747 mmHg 95%
    03:00 +10°C° 0 mm 1 m/s 747 mmHg 94%
    04:00 +10°C° 0 mm 1 m/s 747 mmHg 94%
    05:00 +10°C° 0 mm 1 m/s 747 mmHg 94%
    06:00 +11°C° 0 mm 1 m/s 748 mmHg 84%
    07:00 +13°C° 0 mm 1 m/s 748 mmHg 75%
    08:00 +15°C° 0 mm 1 m/s 748 mmHg 65%
    09:00 +16°C° 0 mm 1 m/s 748 mmHg 60%
    10:00 +19°C° 0 mm 1 m/s 748 mmHg 55%
    11:00 +19°C° 0 mm 2 m/s 748 mmHg 50%
    12:00 +19°C° 0 mm 2 m/s 748 mmHg 49%
    13:00 +20°C° 0 mm 2 m/s 748 mmHg 49%
    14:00 +20°C° 0 mm 2 m/s 748 mmHg 48%
    15:00 +21°C° 0 mm 1 m/s 748 mmHg 53%
    16:00 +20°C° 0 mm 1 m/s 748 mmHg 59%
    17:00 +20°C° 0 mm 1 m/s 748 mmHg 64%
    18:00 +18°C° 0 mm 1 m/s 748 mmHg 69%
    19:00 +15°C° 0 mm 1 m/s 748 mmHg 75%
    20:00 +13°C° 0 mm 1 m/s 748 mmHg 80%
    21:00 +13°C° 0 mm 1 m/s 748 mmHg 81%
    22:00 +12°C° 0 mm 1 m/s 748 mmHg 83%
    23:00 +11°C° 0 mm 1 m/s 748 mmHg 84%

    29 Agosto, Quinta-feira

    Tempo Temperatura Precipitação Vento Pressão Humidade
    00:00 +11°C° 0 mm 1 m/s 748 mmHg 84%
    01:00 +11°C° 0 mm 1 m/s 748 mmHg 84%
    02:00 +10°C° 0 mm 1 m/s 748 mmHg 83%
    03:00 +10°C° 0 mm 1 m/s 748 mmHg 82%
    04:00 +8°C° 0 mm 2 m/s 748 mmHg 80%
    05:00 +8°C° 0 mm 2 m/s 748 mmHg 79%
    06:00 +11°C° 0 mm 1 m/s 748 mmHg 72%
    07:00 +13°C° 0 mm 1 m/s 748 mmHg 65%
    08:00 +14°C° 0 mm 1 m/s 748 mmHg 58%
    09:00 +16°C° 0 mm 1 m/s 748 mmHg 52%
    10:00 +18°C° 0 mm 2 m/s 748 mmHg 46%
    11:00 +19°C° 0 mm 2 m/s 748 mmHg 40%
    12:00 +20°C° 0 mm 2 m/s 747 mmHg 41%
    13:00 +20°C° 0 mm 2 m/s 747 mmHg 42%
    14:00 +21°C° 0 mm 2 m/s 747 mmHg 43%
    15:00 +21°C° 0 mm 2 m/s 746 mmHg 48%
    16:00 +21°C° 0 mm 1 m/s 746 mmHg 54%
    17:00 +21°C° 0 mm 1 m/s 746 mmHg 59%
    18:00 +19°C° 0 mm 1 m/s 745 mmHg 65%
    19:00 +15°C° 0 mm 1 m/s 745 mmHg 70%
    20:00 +13°C° 0 mm 1 m/s 745 mmHg 76%
    21:00 +13°C° 0 mm 1 m/s 745 mmHg 78%
    22:00 +12°C° 0 mm 1 m/s 745 mmHg 79%
    23:00 +11°C° 0 mm 1 m/s 745 mmHg 81%

    30 Agosto, Sexta-feira

    Tempo Temperatura Precipitação Vento Pressão Humidade
    00:00 +11°C° 0 mm 1 m/s 744 mmHg 82%
    01:00 +11°C° 0 mm 1 m/s 744 mmHg 82%
    02:00 +10°C° 0 mm 1 m/s 744 mmHg 83%
    03:00 +10°C° 0 mm 1 m/s 744 mmHg 84%
    04:00 +10°C° 0 mm 1 m/s 744 mmHg 85%
    05:00 +9°C° 0 mm 1 m/s 744 mmHg 85%
    06:00 +11°C° 0 mm 1 m/s 744 mmHg 79%
    07:00 +13°C° 0 mm 2 m/s 744 mmHg 73%
    08:00 +15°C° 0 mm 2 m/s 744 mmHg 66%
    09:00 +16°C° 0 mm 2 m/s 744 mmHg 60%
    10:00 +18°C° 0 mm 2 m/s 744 mmHg 54%
    11:00 +19°C° 0 mm 2 m/s 744 mmHg 48%
    12:00 +20°C° 0 mm 2 m/s 743 mmHg 48%
    13:00 +21°C° 0 mm 2 m/s 743 mmHg 47%
    14:00 +21°C° 0 mm 3 m/s 743 mmHg 46%
    15:00 +21°C° 0 mm 2 m/s 743 mmHg 51%
    16:00 +20°C° 0 mm 2 m/s 743 mmHg 57%
    17:00 +21°C° 0 mm 1 m/s 742 mmHg 62%
    18:00 +19°C° 0 mm 1 m/s 742 mmHg 68%
    19:00 +16°C° 0 mm 2 m/s 742 mmHg 74%
    20:00 +14°C° 0 mm 2 m/s 742 mmHg 80%
    21:00 +13°C° 0 mm 2 m/s 742 mmHg 82%
    22:00 +13°C° 0 mm 2 m/s 742 mmHg 84%
    23:00 +12°C° 0 mm 2 m/s 742 mmHg 86%

    31 Agosto, Sábado

    Tempo Temperatura Precipitação Vento Pressão Humidade
    00:00 +12°C° 0 mm 2 m/s 742 mmHg 88%
    01:00 +10°C° 0 mm 2 m/s 742 mmHg 90%
    02:00 +10°C° 0 mm 2 m/s 742 mmHg 92%
    03:00 +10°C° 0 mm 2 m/s 742 mmHg 91%
    04:00 +10°C° 0 mm 2 m/s 741 mmHg 90%
    05:00 +10°C° 0 mm 2 m/s 741 mmHg 89%
    06:00 +12°C° 0 mm 2 m/s 741 mmHg 83%
    07:00 +14°C° 0 mm 2 m/s 741 mmHg 78%
    08:00 +15°C° 0 mm 2 m/s 741 mmHg 72%
    09:00 +17°C° 0 mm 2 m/s 741 mmHg 67%
    10:00 +19°C° 0 mm 2 m/s 741 mmHg 62%
    11:00 +20°C° 0 mm 2 m/s 741 mmHg 57%
    12:00 +21°C° 0 mm 2 m/s 741 mmHg 56%
    13:00 +22°C° 0 mm 3 m/s 741 mmHg 55%
    14:00 +24°C° 0 mm 3 m/s 741 mmHg 53%
    15:00 +23°C° 0.1 mm 2 m/s 740 mmHg 59%
    16:00 +21°C° 0.1 mm 2 m/s 740 mmHg 64%
    17:00 +21°C° 0.1 mm 2 m/s 740 mmHg 69%
    18:00 +19°C° 0 mm 2 m/s 740 mmHg 76%
    19:00 +17°C° 0 mm 2 m/s 740 mmHg 82%
    20:00 +16°C° 0 mm 2 m/s 739 mmHg 89%
    21:00 +15°C° 0 mm 2 m/s 739 mmHg 90%
    22:00 +15°C° 0 mm 2 m/s 739 mmHg 91%
    23:00 +15°C° 0 mm 2 m/s 739 mmHg 91%
    Mostrar mais